Change the Weather History Date:

Wednesday, November 13, 2013

  Actual Average (KDVL) Record (KDVL)
Temperature  
Mean Temperature 40 °F -  
Max Temperature 53 °F 34 °F 61 °F (1953)
Min Temperature 28 °F 19 °F -7 °F (1986)
Degree Days  
Heating Degree Days 24    
Moisture  
Dew Point 28 °F    
Average Humidity 70    
Maximum Humidity 87    
Minimum Humidity 35    
Precipitation  
Precipitation 0.00 in - - ()
Sea Level Pressure  
Sea Level Pressure 29.80 in    
Wind  
Wind Speed 17 mph (West)    
Max Wind Speed 23 mph    
Max Gust Speed 30 mph    
Visibility 10 miles    
Events      
Averages and records for this station are not official NWS values.
T = Trace of Precipitation, MM = Missing Value Source: NWS Daily Summary

Daily Weather History Graph

Daily Weather History Graph

Search for Another Location

Airport or City:

Trip Planner

Search our weather history database for the weather conditions in past years. The results will help you decide how hot, cold, wet, or windy it might be!

Date:

Astronomy

Nov. 13, 2013 Rise Set
Actual Time 7:39 AM CST 4:55 PM CST
Civil Twilight 7:05 AM CST 5:29 PM CST
Nautical Twilight 6:27 AM CST 6:08 PM CST
Astronomical Twilight 5:50 AM CST 6:45 PM CST
Moon 3:00 PM CST (11/13) 3:15 AM CST (11/13)
Length of Visible Light 10h 24m
Length of Day
9h 15m
Waxing Gibbous, 85% of the Moon is Illuminated
Nov 13
Waxing Gibbous
Nov 17
Full
Nov 25
Last Quarter
Dec 2
New
Dec 9
First Quarter

Hourly Weather History & Observations

Time (CST) Temp. Windchill Dew Point Humidity Pressure Visibility Wind Dir Wind Speed Gust Speed Precip Events Conditions
12:15 AM 28.4 °F 16.2 °F 24.8 °F 86% 29.98 in 10.0 mi SSW 17.3 mph 24.2 mph N/A   Clear
12:35 AM 30.2 °F 17.1 °F 24.8 °F 80% 29.96 in 10.0 mi SW 21.9 mph 29.9 mph N/A   Clear
12:55 AM 30.2 °F 16.8 °F 24.8 °F 80% 29.95 in 10.0 mi SW 23.0 mph 28.8 mph N/A   Clear
1:15 AM 28.4 °F 15.4 °F 24.8 °F 86% 29.94 in 10.0 mi SW 19.6 mph 26.5 mph N/A   Clear
1:35 AM 30.2 °F 18.1 °F 26.6 °F 86% 29.92 in 10.0 mi SW 18.4 mph 24.2 mph N/A   Clear
1:55 AM 30.2 °F 18.1 °F 26.6 °F 86% 29.91 in 10.0 mi SW 18.4 mph - N/A   Clear
2:15 AM 30.2 °F 18.1 °F 26.6 °F 86% 29.91 in 10.0 mi SW 18.4 mph 23.0 mph N/A   Clear
2:35 AM 32.0 °F 20.5 °F 26.6 °F 80% 29.89 in 10.0 mi SW 18.4 mph 25.3 mph N/A   Clear
2:55 AM 32.0 °F 20.8 °F 26.6 °F 80% 29.87 in 10.0 mi SW 17.3 mph - N/A   Clear
3:15 AM 32.0 °F 20.5 °F 26.6 °F 80% 29.86 in 10.0 mi SW 18.4 mph - N/A   Clear
3:35 AM 32.0 °F 19.8 °F 26.6 °F 80% 29.84 in 10.0 mi SW 20.7 mph 26.5 mph N/A   Clear
3:55 AM 32.0 °F 20.8 °F 26.6 °F 80% 29.84 in 10.0 mi SW 17.3 mph 25.3 mph N/A   Clear
4:15 AM 32.0 °F 19.8 °F 28.4 °F 87% 29.82 in 10.0 mi SW 20.7 mph 25.3 mph N/A   Clear
4:35 AM 32.0 °F 20.5 °F 28.4 °F 87% 29.82 in 10.0 mi SW 18.4 mph - N/A   Clear
4:55 AM 32.0 °F 20.5 °F 28.4 °F 87% 29.80 in 10.0 mi SW 18.4 mph - N/A   Clear
5:15 AM 32.0 °F 20.8 °F 26.6 °F 80% 29.80 in 10.0 mi SW 17.3 mph - N/A   Clear
5:35 AM 32.0 °F 21.2 °F 28.4 °F 87% 29.77 in 10.0 mi SW 16.1 mph - N/A   Clear
5:55 AM 32.0 °F 20.5 °F 28.4 °F 87% 29.76 in 10.0 mi SW 18.4 mph - N/A   Clear
6:15 AM 33.8 °F 22.8 °F 28.4 °F 81% 29.75 in 10.0 mi SW 18.4 mph 23.0 mph N/A   Clear
6:35 AM 33.8 °F 23.9 °F 28.4 °F 81% 29.75 in 10.0 mi SW 15.0 mph - N/A   Clear
6:55 AM 33.8 °F 23.9 °F 28.4 °F 81% 29.76 in 10.0 mi WSW 15.0 mph - N/A   Clear
7:15 AM 33.8 °F 23.5 °F 28.4 °F 81% 29.77 in 10.0 mi WSW 16.1 mph - N/A   Clear
7:35 AM 33.8 °F 23.9 °F 28.4 °F 81% 29.76 in 10.0 mi West 15.0 mph - N/A   Clear
7:55 AM 35.6 °F 25.5 °F 30.2 °F 81% 29.76 in 10.0 mi West 17.3 mph 25.3 mph N/A   Clear
8:15 AM 39.2 °F 29.8 °F 32.0 °F 75% 29.75 in 10.0 mi West 18.4 mph 24.2 mph N/A   Clear
8:35 AM 39.2 °F 29.8 °F 32.0 °F 75% 29.75 in 10.0 mi West 18.4 mph - N/A   Clear
8:55 AM 39.2 °F 30.5 °F 32.0 °F 75% 29.75 in 10.0 mi West 16.1 mph - N/A   Clear
9:15 AM 39.2 °F 30.2 °F 32.0 °F 75% 29.75 in 10.0 mi West 17.3 mph 21.9 mph N/A   Clear
9:35 AM 41.0 °F 31.9 °F 32.0 °F 70% 29.75 in 10.0 mi West 19.6 mph 25.3 mph N/A   Clear
9:55 AM 44.6 °F 36.9 °F 32.0 °F 61% 29.75 in 10.0 mi West 18.4 mph - N/A   Clear
10:15 AM 46.4 °F 39.2 °F 32.0 °F 57% 29.75 in 10.0 mi West 18.4 mph 24.2 mph N/A   Clear
10:35 AM 46.4 °F 40.4 °F 32.0 °F 57% 29.76 in 10.0 mi WNW 13.8 mph - N/A   Clear
10:55 AM 46.4 °F 38.7 °F 30.2 °F 53% 29.76 in 10.0 mi WNW 20.7 mph 27.6 mph N/A   Clear
11:15 AM 46.4 °F 39.2 °F 28.4 °F 50% 29.77 in 10.0 mi WNW 18.4 mph 26.5 mph N/A   Clear
11:35 AM 50.0 °F - 28.4 °F 43% 29.77 in 10.0 mi NW 17.3 mph 24.2 mph N/A   Clear
11:55 AM 48.2 °F - 26.6 °F 43% 29.76 in 10.0 mi WNW 18.4 mph 26.5 mph N/A   Clear
12:15 PM 48.2 °F - 26.6 °F 43% 29.76 in 10.0 mi WNW 19.6 mph - N/A   Clear
12:35 PM 48.2 °F - 26.6 °F 43% 29.77 in 10.0 mi WNW 17.3 mph 24.2 mph N/A   Clear
12:55 PM 50.0 °F - 26.6 °F 40% 29.78 in 10.0 mi NW 13.8 mph 21.9 mph N/A   Clear
1:15 PM 50.0 °F - 26.6 °F 40% 29.77 in 10.0 mi WNW 17.3 mph 20.7 mph N/A   Clear
1:35 PM 53.6 °F - 26.6 °F 35% 29.78 in 10.0 mi NW 19.6 mph 26.5 mph N/A   Clear
1:55 PM 53.6 °F - 26.6 °F 35% 29.78 in 10.0 mi WNW 23.0 mph 26.5 mph N/A   Clear
2:15 PM 50.0 °F - 26.6 °F 40% 29.78 in 10.0 mi WNW 17.3 mph - N/A   Clear
2:35 PM 46.4 °F 40.7 °F 26.6 °F 46% 29.77 in 10.0 mi WNW 12.7 mph - N/A   Clear
2:55 PM 48.2 °F - 28.4 °F 46% 29.77 in 10.0 mi West 12.7 mph - N/A   Clear
3:15 PM 53.6 °F - 30.2 °F 41% 29.77 in 10.0 mi WNW 17.3 mph 21.9 mph N/A   Clear
3:35 PM 51.8 °F - 30.2 °F 44% 29.77 in 10.0 mi WNW 19.6 mph 24.2 mph N/A   Clear
3:55 PM 50.0 °F - 30.2 °F 47% 29.78 in 10.0 mi WNW 13.8 mph - N/A   Clear
4:15 PM 50.0 °F - 30.2 °F 47% 29.78 in 10.0 mi WNW 12.7 mph - N/A   Clear
4:35 PM 46.4 °F 41.1 °F 30.2 °F 53% 29.79 in 10.0 mi WNW 11.5 mph - N/A   Clear
4:55 PM 41.0 °F 35.2 °F 28.4 °F 61% 29.79 in 10.0 mi WNW 9.2 mph - N/A   Clear
5:15 PM 37.4 °F 30.3 °F 26.6 °F 65% 29.80 in 10.0 mi West 10.4 mph - N/A   Clear
5:35 PM 37.4 °F 30.3 °F 26.6 °F 65% 29.80 in 10.0 mi West 10.4 mph - N/A   Clear
5:55 PM 35.6 °F 28.0 °F 26.6 °F 70% 29.81 in 8.0 mi West 10.4 mph - N/A   Clear
6:15 PM 35.6 °F 28.0 °F 28.4 °F 75% 29.81 in 10.0 mi West 10.4 mph - N/A   Clear
6:35 PM 35.6 °F 27.5 °F 26.6 °F 70% 29.81 in 10.0 mi West 11.5 mph - N/A   Clear
6:55 PM 32.0 °F 23.6 °F 26.6 °F 80% 29.81 in 10.0 mi West 10.4 mph - N/A   Clear
7:15 PM 32.0 °F 23.6 °F 26.6 °F 80% 29.81 in 10.0 mi West 10.4 mph - N/A   Clear
7:35 PM 33.8 °F 27.0 °F 26.6 °F 75% 29.81 in 10.0 mi West 8.1 mph - N/A   Clear
7:55 PM 32.0 °F 24.8 °F 24.8 °F 75% 29.80 in 10.0 mi West 8.1 mph - N/A   Clear
8:15 PM 28.4 °F 19.7 °F 23.0 °F 80% 29.80 in 10.0 mi West 9.2 mph - N/A   Clear
8:35 PM 28.4 °F 19.1 °F 24.8 °F 86% 29.80 in 10.0 mi WSW 10.4 mph - N/A   Clear
8:55 PM 28.4 °F 19.7 °F 24.8 °F 86% 29.80 in 10.0 mi WSW 9.2 mph - N/A   Clear
9:15 PM 30.2 °F 21.9 °F 24.8 °F 80% 29.80 in 10.0 mi WSW 9.2 mph - N/A   Clear
9:35 PM 32.0 °F 24.2 °F 26.6 °F 80% 29.80 in 10.0 mi West 9.2 mph - N/A   Clear
9:55 PM 32.0 °F 27.5 °F 26.6 °F 80% 29.80 in 10.0 mi WSW 4.6 mph - N/A   Clear
10:15 PM 32.0 °F 25.6 °F 26.6 °F 80% 29.80 in 10.0 mi WSW 6.9 mph - N/A   Scattered Clouds
10:35 PM 32.0 °F 26.4 °F 26.6 °F 80% 29.80 in 10.0 mi WSW 5.8 mph - N/A   Mostly Cloudy
10:55 PM 32.0 °F 24.8 °F 28.4 °F 87% 29.80 in 10.0 mi WSW 8.1 mph - N/A   Mostly Cloudy
11:15 PM 33.8 °F 25.8 °F 28.4 °F 81% 29.80 in 10.0 mi WSW 10.4 mph - N/A   Mostly Cloudy
11:35 PM 35.6 °F 28.0 °F 28.4 °F 75% 29.80 in 10.0 mi West 10.4 mph - N/A   Mostly Cloudy
11:55 PM 37.4 °F 30.8 °F 30.2 °F 75% 29.79 in 10.0 mi West 9.2 mph - N/A   Overcast